Atmospheric History
02/08/2018 18:30  to  2/9/2018 18:30
Change End Date:
To complete the export process:
1) Select all of the data below
2) Copy the data to the clipboard
3) Open a word processor such as Notepad
4) Paste the data into the word processor
5) Save the file

Date/Time (MDT), AirTemp, RH, Dewpoint ,AvgWindSpeed, GustWindSpeed, WindDirection, PrecipType, PrecipIntensity, PrecipAccumulation, PrecipRate
02/09/2018 18:26, 19, 94, 17 ,7, 14, S, Snow, Slight, 0.25, 0
02/09/2018 18:16, 19, 94, 17 ,8, 11, S, Snow, Slight, 0.25, 0
02/09/2018 18:15, 19, 94, 17 ,7, 11, S, Snow, Slight, 0.25, 0
02/09/2018 18:06, 19, 94, 17 ,6, 11, S, Snow, Slight, 0.25, 0
02/09/2018 18:00, 19, 94, 17 ,5, 10, SW, None, None, 0.25, 0
02/09/2018 17:56, 19, 94, 17 ,5, 10, S, None, None, 0.25, 0
02/09/2018 17:46, 19, 94, 18 ,4, 9, SW, Snow, Slight, 0.25, 0
02/09/2018 17:45, 19, 94, 18 ,4, 9, S, Snow, Slight, 0.25, 0
02/09/2018 17:36, 19, 94, 18 ,6, 11, S, Snow, Slight, 0.25, 0
02/09/2018 17:30, 19, 94, 18 ,6, 11, S, Snow, Slight, 0.25, 0
02/09/2018 17:26, 19, 94, 18 ,6, 9, S, Snow, Slight, 0.25, 0
02/09/2018 17:16, 19, 94, 18 ,6, 12, S, None, None, 0.25, 0
02/09/2018 17:15, 19, 94, 18 ,6, 12, S, None, None, 0.25, 0
02/09/2018 17:06, 19, 93, 18 ,6, 11, S, None, None, 0.25, 0
02/09/2018 17:00, 19, 93, 18 ,6, 10, S, None, None, 0.25, 0
02/09/2018 16:56, 19, 93, 18 ,6, 9, S, None, None, 0.25, 0
02/09/2018 16:46, 20, 92, 18 ,4, 7, S, None, None, 0.25, 0
02/09/2018 16:45, 20, 92, 18 ,6, 7, S, None, None, 0.25, 0
02/09/2018 16:36, 20, 92, 18 ,4, 6, S, None, None, 0.25, 0
02/09/2018 16:30, 20, 92, 18 ,6, 7, S, None, None, 0.25, 0
02/09/2018 16:26, 20, 91, 18 ,4, 7, S, None, None, 0.25, 0
02/09/2018 16:16, 20, 91, 18 ,4, 7, S, None, None, 0.25, 0
02/09/2018 16:15, 20, 91, 18 ,3, 7, S, None, None, 0.25, 0
02/09/2018 16:06, 20, 90, 18 ,6, 7, SW, None, None, 0.25, 0
02/09/2018 16:00, 20, 91, 18 ,4, 7, SW, None, None, 0.25, 0
02/09/2018 15:56, 20, 91, 18 ,5, 7, S, None, None, 0.25, 0
02/09/2018 15:45, 20, 90, 18 ,6, 8, S, None, None, 0.25, 0
02/09/2018 15:45, 20, 91, 18 ,5, 7, S, None, None, 0.25, 0
02/09/2018 15:35, 20, 91, 17 ,5, 7, S, Snow, Slight, 0.25, 0
02/09/2018 15:30, 20, 90, 17 ,4, 8, S, Snow, Slight, 0.24, 0
02/09/2018 15:25, 20, 90, 17 ,4, 8, S, Snow, Slight, 0.24, 0
02/09/2018 15:15, 20, 90, 17 ,5, 7, S, Snow, Slight, 0.24, 0
02/09/2018 15:15, 20, 90, 17 ,4, 7, S, Snow, Slight, 0.24, 0
02/09/2018 15:05, 20, 90, 17 ,7, 10, SW, Snow, Slight, 0.24, 0
02/09/2018 15:00, 20, 90, 17 ,7, 10, S, Snow, Slight, 0.24, 0
02/09/2018 14:55, 20, 90, 18 ,6, 10, S, Snow, Slight, 0.24, 0
02/09/2018 14:45, 20, 90, 18 ,5, 9, S, Snow, Slight, 0.24, 0
02/09/2018 14:45, 20, 90, 18 ,6, 9, S, None, None, 0.24, 0
02/09/2018 14:35, 20, 90, 17 ,6, 9, S, Snow, Slight, 0.24, 0
02/09/2018 14:30, 20, 90, 17 ,7, 10, S, Snow, Slight, 0.24, 0
02/09/2018 14:25, 20, 90, 17 ,6, 11, S, Snow, Slight, 0.24, 0
02/09/2018 14:15, 20, 90, 17 ,7, 11, S, None, None, 0.24, 0
02/09/2018 14:15, 20, 90, 17 ,7, 11, S, None, None, 0.24, 0
02/09/2018 14:05, 20, 90, 17 ,7, 11, S, None, None, 0.24, 0
02/09/2018 14:00, 20, 90, 18 ,6, 11, S, None, None, 0.24, 0
02/09/2018 13:55, 20, 90, 17 ,6, 11, S, None, None, 0.24, 0
02/09/2018 13:45, 20, 90, 18 ,6, 10, S, None, None, 0.24, 0
02/09/2018 13:45, 20, 90, 18 ,6, 10, S, None, None, 0.24, 0
02/09/2018 13:35, 21, 90, 18 ,5, 12, S, None, None, 0.24, 0
02/09/2018 13:30, 20, 89, 18 ,7, 11, S, None, None, 0.24, 0
02/09/2018 13:25, 21, 89, 19 ,7, 11, S, None, None, 0.24, 0
02/09/2018 13:15, 22, 89, 19 ,6, 11, S, None, None, 0.24, 0
02/09/2018 13:14, 22, 89, 19 ,6, 11, S, None, None, 0.24, 0
02/09/2018 13:04, 20, 89, 18 ,6, 9, S, None, None, 0.24, 0
02/09/2018 13:00, 20, 90, 18 ,4, 11, S, None, None, 0.24, 0
02/09/2018 12:54, 20, 90, 18 ,6, 10, S, None, None, 0.24, 0
02/09/2018 12:45, 19, 90, 17 ,6, 10, S, None, None, 0.24, 0
02/09/2018 12:44, 20, 90, 17 ,7, 10, S, None, None, 0.24, 0
02/09/2018 12:34, 20, 91, 17 ,7, 11, S, None, None, 0.24, 0
02/09/2018 12:30, 20, 91, 18 ,6, 11, S, None, None, 0.24, 0
02/09/2018 12:24, 20, 91, 18 ,7, 11, S, None, None, 0.24, 0
02/09/2018 12:15, 20, 91, 18 ,6, 11, S, None, None, 0.24, 0
02/09/2018 12:14, 20, 91, 18 ,5, 9, S, None, None, 0.24, 0
02/09/2018 12:04, 20, 91, 18 ,4, 9, S, None, None, 0.24, 0
02/09/2018 12:00, 20, 92, 18 ,6, 9, S, None, None, 0.24, 0
02/09/2018 11:54, 20, 92, 18 ,6, 11, S, None, None, 0.24, 0
02/09/2018 11:45, 20, 92, 18 ,6, 11, S, None, None, 0.24, 0
02/09/2018 11:44, 20, 92, 18 ,7, 12, S, None, None, 0.24, 0
02/09/2018 11:34, 19, 93, 17 ,7, 11, S, None, None, 0.24, 0
02/09/2018 11:30, 19, 93, 17 ,7, 12, S, None, None, 0.24, 0
02/09/2018 11:24, 19, 93, 17 ,7, 12, S, None, None, 0.24, 0
02/09/2018 11:15, 19, 93, 17 ,6, 12, S, None, None, 0.24, 0
02/09/2018 11:14, 19, 93, 17 ,7, 12, S, None, None, 0.24, 0
02/09/2018 11:04, 18, 93, 17 ,9, 13, S, None, None, 0.24, 0
02/09/2018 11:00, 18, 94, 17 ,7, 12, S, None, None, 0.24, 0
02/09/2018 10:54, 18, 94, 17 ,7, 12, S, None, None, 0.24, 0
02/09/2018 10:45, 18, 94, 17 ,7, 12, S, None, None, 0.24, 0
02/09/2018 10:44, 18, 94, 17 ,8, 12, S, None, None, 0.24, 0
02/09/2018 10:34, 18, 94, 17 ,7, 10, S, None, None, 0.24, 0
02/09/2018 10:30, 18, 94, 17 ,4, 10, S, None, None, 0.24, 0
02/09/2018 10:24, 18, 94, 17 ,6, 10, S, None, None, 0.24, 0
02/09/2018 10:15, 18, 94, 17 ,6, 9, S, None, None, 0.24, 0
02/09/2018 10:14, 18, 94, 17 ,4, 9, S, None, None, 0.24, 0
02/09/2018 10:03, 18, 94, 16 ,6, 11, S, None, None, 0.24, 0
02/09/2018 10:00, 18, 94, 17 ,4, 9, S, None, None, 0.24, 0
02/09/2018 09:53, 18, 94, 17 ,4, 11, S, None, None, 0.24, 0
02/09/2018 09:45, 18, 94, 16 ,6, 12, S, None, None, 0.24, 0
02/09/2018 09:43, 18, 94, 16 ,4, 12, S, None, None, 0.24, 0
02/09/2018 09:33, 18, 94, 17 ,7, 10, S, None, None, 0.24, 0
02/09/2018 09:30, 18, 94, 16 ,6, 10, S, None, None, 0.24, 0
02/09/2018 09:23, 17, 94, 16 ,6, 12, S, None, None, 0.24, 0
02/09/2018 09:15, 17, 94, 16 ,7, 12, S, None, None, 0.24, 0
02/09/2018 09:13, 17, 94, 16 ,7, 11, S, None, None, 0.24, 0
02/09/2018 09:03, 17, 94, 16 ,7, 11, S, None, None, 0.24, 0
02/09/2018 09:00, 17, 94, 16 ,7, 12, S, None, None, 0.24, 0
02/09/2018 08:53, 17, 94, 16 ,7, 13, S, None, None, 0.24, 0
02/09/2018 08:45, 18, 94, 16 ,9, 12, SW, Snow, Slight, 0.24, 0
02/09/2018 08:43, 18, 94, 16 ,7, 12, S, Snow, Slight, 0.24, 0
02/09/2018 08:33, 18, 94, 16 ,7, 13, S, Snow, Slight, 0.24, 0
02/09/2018 08:30, 18, 94, 17 ,6, 11, S, Snow, Slight, 0.24, 0
02/09/2018 08:23, 18, 94, 17 ,6, 11, S, Snow, Slight, 0.24, 0
02/09/2018 08:15, 18, 94, 17 ,6, 10, S, Snow, Slight, 0.24, 0.1
02/09/2018 08:13, 18, 94, 17 ,7, 10, S, Snow, Slight, 0.24, 0
02/09/2018 08:03, 18, 95, 17 ,6, 9, S, Snow, Moderate, 0.22, 0.1
02/09/2018 08:00, 18, 95, 17 ,6, 8, S, Snow, Moderate, 0.22, 0.1
02/09/2018 07:53, 19, 95, 17 ,6, 11, S, Snow, Moderate, 0.2, 0.2
02/09/2018 07:45, 19, 95, 17 ,4, 11, S, Snow, Slight, 0.18, 0
02/09/2018 07:43, 19, 95, 17 ,6, 11, S, Snow, Slight, 0.18, 0
02/09/2018 07:33, 19, 95, 18 ,4, 9, S, Snow, Slight, 0.18, 0
02/09/2018 07:30, 19, 95, 18 ,6, 11, S, Snow, Slight, 0.18, 0
02/09/2018 07:23, 19, 95, 18 ,8, 12, S, Snow, Slight, 0.18, 0
02/09/2018 07:15, 19, 95, 18 ,4, 11, S, Snow, Slight, 0.18, 0
02/09/2018 07:12, 19, 95, 18 ,6, 11, S, Snow, Slight, 0.18, 0
02/09/2018 07:02, 19, 95, 18 ,6, 10, S, Snow, Slight, 0.18, 0
02/09/2018 07:00, 19, 95, 18 ,6, 10, S, Snow, Slight, 0.18, 0
02/09/2018 06:52, 19, 95, 18 ,5, 11, S, Snow, Moderate, 0.17, 0.1
02/09/2018 06:45, 19, 95, 19 ,7, 11, S, Snow, Slight, 0.17, 0
02/09/2018 06:42, 20, 96, 19 ,6, 9, S, Snow, Slight, 0.17, 0
02/09/2018 06:32, 20, 96, 19 ,6, 9, S, Snow, Slight, 0.16, 0
02/09/2018 06:30, 20, 96, 19 ,7, 11, S, Snow, Slight, 0.16, 0
02/09/2018 06:22, 20, 96, 19 ,4, 11, S, Snow, Slight, 0.16, 0
02/09/2018 06:15, 20, 96, 19 ,6, 10, S, Snow, Slight, 0.16, 0
02/09/2018 06:12, 20, 96, 20 ,6, 9, S, Snow, Slight, 0.16, 0
02/09/2018 06:02, 20, 96, 20 ,6, 9, S, Snow, Slight, 0.16, 0
02/09/2018 06:00, 21, 96, 20 ,7, 9, S, Snow, Slight, 0.16, 0
02/09/2018 05:52, 21, 96, 20 ,5, 10, S, Snow, Slight, 0.16, 0
02/09/2018 05:45, 21, 97, 20 ,5, 9, S, Snow, Slight, 0.16, 0
02/09/2018 05:42, 21, 97, 21 ,5, 9, S, Snow, Slight, 0.16, 0
02/09/2018 05:32, 22, 97, 21 ,2, 11, S, Snow, Slight, 0.15, 0
02/09/2018 05:30, 22, 97, 21 ,6, 11, S, Snow, Slight, 0.15, 0
02/09/2018 05:22, 22, 98, 22 ,6, 10, S, Snow, Slight, 0.15, 0
02/09/2018 05:15, 22, 98, 22 ,5, 12, S, Snow, Slight, 0.15, 0.1
02/09/2018 05:12, 22, 98, 22 ,5, 12, S, Snow, Slight, 0.14, 0.1
02/09/2018 05:02, 24, 99, 23 ,7, 10, S, Snow, Slight, 0.12, 0.1
02/09/2018 05:00, 24, 99, 23 ,7, 10, S, Snow, Slight, 0.12, 0.1
02/09/2018 04:52, 24, 99, 24 ,5, 11, S, Snow, Slight, 0.11, 0
02/09/2018 04:45, 25, 99, 25 ,3, 10, S, Snow, Slight, 0.11, 0
02/09/2018 04:42, 25, 99, 25 ,4, 11, S, Snow, Slight, 0.11, 0
02/09/2018 04:32, 26, 99, 26 ,7, 11, SW, Snow, Slight, 0.11, 0
02/09/2018 04:30, 26, 99, 26 ,6, 11, S, Snow, Slight, 0.11, 0
02/09/2018 04:22, 27, 99, 27 ,4, 8, SW, Snow, Slight, 0.11, 0
02/09/2018 04:15, 28, 98, 28 ,5, 8, SW, Snow, Slight, 0.11, 0
02/09/2018 04:12, 28, 99, 28 ,2, 7, S, Snow, Slight, 0.11, 0
02/09/2018 04:01, 30, 99, 30 ,4, 9, N, Snow, Slight, 0.1, 0
02/09/2018 04:00, 30, 99, 30 ,6, 9, NE, Snow, Slight, 0.1, 0
02/09/2018 03:51, 30, 99, 30 ,8, 9, NE, Snow, Slight, 0.1, 0
02/09/2018 03:45, 30, 99, 30 ,6, 11, NE, Snow, Slight, 0.1, 0.1
02/09/2018 03:41, 30, ,   ,5, 11, NE, Snow, Slight, 0.09, 0.1
02/09/2018 03:31, 30, ,   ,9, 15, NE, Snow, Slight, 0.09, 0
02/09/2018 03:30, 30, ,   ,10, 15, N, Snow, Slight, 0.09, 0
02/09/2018 03:21, 30, ,   ,9, 16, N, Snow, Slight, 0.09, 0
02/09/2018 03:15, 30, ,   ,9, 12, NE, Snow, Slight, 0.08, 0
02/09/2018 03:11, 31, ,   ,3, 11, NE, Snow, Slight, 0.08, 0
02/09/2018 03:01, 31, ,   ,6, 16, N, Snow, Slight, 0.07, 0
02/09/2018 03:00, 31, ,   ,9, 16, N, Snow, Slight, 0.07, 0
02/09/2018 02:51, 31, 98, 31 ,7, 16, N, Snow, Moderate, 0.06, 0.1
02/09/2018 02:45, 32, 96, 31 ,9, 14, N, Snow, Moderate, 0.04, 0.2
02/09/2018 02:41, 32, 94, 31 ,11, 14, N, Snow, Slight, 0.04, 0
02/09/2018 02:31, 33, 94, 31 ,5, 9, NE, Snow, Slight, 0.04, 0
02/09/2018 02:30, 33, 93, 31 ,5, 9, NE, Snow, Slight, 0.04, 0
02/09/2018 02:21, 34, 90, 31 ,4, 6, NE, Snow, Slight, 0.03, 0
02/09/2018 02:15, 34, 89, 31 ,3, 9, NE, Snow, Slight, 0.03, 0
02/09/2018 02:11, 34, 89, 31 ,4, 9, NE, Snow, Slight, 0.03, 0
02/09/2018 02:01, 34, 89, 31 ,4, 8, N, Snow, Slight, 0.03, 0
02/09/2018 02:00, 34, 89, 31 ,4, 8, N, Yes, Moderate, 0.03, 0
02/09/2018 01:51, 34, 90, 31 ,1, 7, NE, Snow, Slight, 0.03, 0
02/09/2018 01:45, 34, 90, 32 ,1, 9, E, Snow, Slight, 0.03, 0
02/09/2018 01:41, 35, 89, 32 ,6, 9, N, Snow, Slight, 0.02, 0
02/09/2018 01:31, 35, 86, 32 ,1, 4, SE, None, None, 0.02, 0
02/09/2018 01:30, 35, 86, 32 ,0, 6, SE, None, None, 0.02, 0
02/09/2018 01:21, 35, 87, 32 ,5, 9, E, None, None, 0.02, 0
02/09/2018 01:15, 35, 88, 32 ,6, 9, NE, None, None, 0.02, 0
02/09/2018 01:11, 35, 87, 31 ,3, 6, NE, None, None, 0.02, 0
02/09/2018 01:01, 35, 83, 31 ,5, 10, N, None, None, 0.02, 0
02/09/2018 01:00, 36, 83, 31 ,6, 10, N, None, None, 0.02, 0
02/09/2018 00:51, 36, 79, 30 ,3, 7, NE, None, None, 0.02, 0
02/09/2018 00:45, 36, 81, 31 ,4, 7, NE, None, None, 0.02, 0
02/09/2018 00:40, 36, 82, 31 ,4, 7, NE, None, None, 0.02, 0
02/09/2018 00:30, 36, 82, 31 ,4, 9, NE, None, None, 0.02, 0
02/09/2018 00:30, 36, 82, 31 ,4, 9, NE, None, None, 0.02, 0
02/09/2018 00:20, 37, 79, 31 ,4, 9, NE, Yes, Slight, 0.02, 0
02/09/2018 00:15, 37, 79, 31 ,7, 10, NE, None, None, 0.02, 0
02/09/2018 00:10, 37, 80, 31 ,6, 9, NE, None, None, 0.02, 0
02/09/2018 00:00, 36, 81, 31 ,5, 7, E, None, None, 0.02, 0
02/09/2018 00:00, 36, 81, 31 ,4, 7, NE, None, None, 0.02, 0
02/08/2018 23:50, 37, 78, 31 ,5, 9, E, None, None, 0.02, 0
02/08/2018 23:45, 37, 80, 31 ,6, 9, NE, None, None, 0.02, 0
02/08/2018 23:40, 37, 80, 31 ,3, 8, NE, None, None, 0.02, 0
02/08/2018 23:30, 36, 85, 32 ,3, 4, E, None, None, 0.02, 0
02/08/2018 23:30, 36, 85, 32 ,2, 4, E, None, None, 0.02, 0
02/08/2018 23:20, 37, 82, 32 ,1, 7, E, Yes, Slight, 0.02, 0
02/08/2018 23:15, 37, 81, 32 ,3, 7, E, Yes, Moderate, 0.03, 0
02/08/2018 23:10, 37, 84, 32 ,3, 6, SE, None, None, 0.03, 0
02/08/2018 23:00, 37, 82, 32 ,3, 9, NE, None, None, 0.03, 0
02/08/2018 23:00, 37, 83, 32 ,3, 9, NE, None, None, 0.03, 0
02/08/2018 22:50, 37, 85, 33 ,2, 9, NE, None, None, 0.03, 0
02/08/2018 22:45, 37, 84, 33 ,4, 7, NE, None, None, 0.03, 0
02/08/2018 22:40, 37, 85, 33 ,3, 9, NE, None, None, 0.03, 0
02/08/2018 22:30, 37, 86, 34 ,5, 10, NE, None, None, 0.03, 0
02/08/2018 22:30, 37, 86, 34 ,5, 10, NE, None, None, 0.03, 0
02/08/2018 22:20, 37, 88, 34 ,4, 9, NE, None, None, 0.03, 0
02/08/2018 22:15, 37, 91, 34 ,6, 7, NE, None, None, 0.03, 0
02/08/2018 22:10, 36, 90, 34 ,2, 6, NE, None, None, 0.03, 0
02/08/2018 22:00, 37, 89, 34 ,4, 6, E, None, None, 0.04, 0
02/08/2018 22:00, 37, 89, 34 ,4, 6, E, None, None, 0.04, 0
02/08/2018 21:50, 38, 86, 34 ,2, 12, NE, None, None, 0.04, 0
02/08/2018 21:45, 37, 88, 34 ,2, 6, W, None, None, 0.05, 0
02/08/2018 21:40, 38, 86, 34 ,2, 9, E, None, None, 0.05, 0
02/08/2018 21:30, 37, 88, 34 ,6, 12, NE, None, None, 0.06, 0
02/08/2018 21:29, 37, 88, 34 ,6, 12, E, None, None, 0.06, 0
02/08/2018 21:19, 37, 88, 34 ,7, 12, NE, None, None, 0.07, 0
02/08/2018 21:15, 37, 89, 34 ,9, 12, NE, None, None, 0.07, 0
02/08/2018 21:09, 37, 87, 34 ,7, 12, NE, None, None, 0.07, 0
02/08/2018 21:00, 38, 82, 33 ,6, 18, NE, Snow, Slight, 0.07, 0
02/08/2018 20:59, 38, 82, 33 ,6, 18, NE, Snow, Slight, 0.07, 0
02/08/2018 20:49, 39, 78, 33 ,12, 21, SE, Yes, Moderate, 0.07, 0
02/08/2018 20:45, 39, 79, 33 ,7, 13, E, None, None, 0.07, 0
02/08/2018 20:39, 39, 78, 33 ,8, 13, E, Yes, Moderate, 0.07, 0
02/08/2018 20:30, 37, 86, 34 ,5, 7, E, None, None, 0.07, 0
02/08/2018 20:29, 37, 86, 33 ,6, 7, NE, None, None, 0.07, 0
02/08/2018 20:19, 38, 82, 33 ,6, 14, E, Yes, Moderate, 0.07, 0
02/08/2018 20:15, 38, 80, 33 ,4, 17, E, Snow, Slight, 0.07, 0
02/08/2018 20:09, 38, 80, 33 ,9, 17, E, Yes, Moderate, 0.07, 0
02/08/2018 20:00, 38, 80, 33 ,6, 13, N, Yes, Moderate, 0.07, 0
02/08/2018 19:59, 38, 79, 33 ,5, 13, NE, Yes, Moderate, 0.07, 0
02/08/2018 19:49, 38, 82, 33 ,6, 12, SE, Yes, Moderate, 0.07, 0
02/08/2018 19:45, 39, 80, 33 ,7, 10, SE, None, None, 0.07, 0
02/08/2018 19:39, 39, 82, 34 ,4, 12, NE, None, None, 0.07, 0
02/08/2018 19:30, 37, 88, 34 ,4, 8, E, None, None, 0.07, 0
02/08/2018 19:29, 37, 87, 34 ,4, 8, NE, None, None, 0.07, 0
02/08/2018 19:19, 37, 85, 33 ,7, 14, N, None, None, 0.07, 0
02/08/2018 19:15, 38, 83, 33 ,7, 15, NE, Yes, Moderate, 0.07, 0
02/08/2018 19:09, 39, 76, 32 ,6, 15, N, Rain, Moderate, 0.07, 0.3
02/08/2018 19:00, 40, 74, 33 ,7, 22, E, Yes, Slight, 0.07, 0
02/08/2018 18:59, 40, 74, 33 ,11, 22, SE, Yes, Moderate, 0.07, 0
02/08/2018 18:48, 40, 71, 31 ,13, 17, SE, None, None, 0.07, 0
02/08/2018 18:45, 40, 69, 31 ,9, 15, E, None, None, 0.07, 0
02/08/2018 18:38, 41, 68, 31 ,10, 17, E, None, None, 0.07, 0
02/08/2018 18:30, 41, 67, 31 ,13, 22, SE, None, None, 0.07, 0
Change End Date:

Copyright © 1998-2015 Vaisala, Inc.
All Rights Reserved
Send comments about the data to:
SCAN Web ® is a registered trademark of Vaisala, Inc.
SCAN Web Version 6.0